#timestamp,LO_Frequency,Hit,StdDev 
1516791615.8,286047005.0,Y
1516791635.7,286047001.5,P
1516791655.5,286047000.0,N
1516791675.3,286047000.5,N
1516791695.2,286046998.5,N
1516791715.0,286046998.6,N
1516791715.9,286046998.6,N
1516791735.8,286046998.2,N
1516791755.6,286046998.4,N
1516791775.4,286046998.2,N
1516791795.3,286046999.8,N
1516791815.1,286046999.8,N
1516791835.8,286047000.9,N
1516791855.7,286047001.9,N
1516791875.5,286047002.4,N
1516791895.4,286047001.8,N
1516791915.2,286047000.0,N
1516791935.0,286047000.0,N
1516791935.9,286047000.0,N
1516791955.8,286046998.7,N
1516791975.6,286046997.1,N
1516791995.4,286046998.8,N
1516792015.3,286047001.2,N
1516792035.1,286046998.4,N
1516792055.9,286046998.1,N
1516792075.7,286046999.8,N
1516792095.5,286047001.9,N
1516792115.4,286047001.3,N
1516792135.2,286047001.4,N
1516792155.0,286047004.4,N
1516792156.0,286047004.4,N
1516792175.8,286047002.2,N
1516792195.6,286047002.0,N
1516792215.5,286047004.4,N
1516792235.3,286047001.3,N
1516792255.1,286047004.2,N
1516792275.9,286047003.4,N
1516792295.7,286047005.5,N
1516792315.6,286047005.1,N
1516792335.4,286047003.2,N
1516792355.2,286047001.4,N
1516792375.1,286047001.8,N
1516792376.0,286047001.8,N
1516792395.8,286047001.8,N
1516792415.6,286047003.7,N
1516792435.5,286047004.0,N
1516792455.4,286047001.5,N
1516792475.2,286047004.3,N
1516792495.1,286047002.4,N
1516792496.0,286047002.4,N
1516792515.8,286047002.3,N
1516792535.6,286047004.4,N
1516792555.5,286047004.1,N
1516792575.3,286047001.6,N
1516792595.2,286047003.2,N
1516792615.9,286047003.2,N
1516792635.7,286047001.3,N
1516792655.6,286047004.3,Y
1516792675.4,286047000.4,P
1516792695.3,286047000.9,N
1516792715.1,286047000.4,N
1516792716.0,286047000.4,N
1516792735.8,286047000.8,N
1516792755.7,286046998.7,N
1516792775.5,286047000.2,N
1516792795.4,286047001.2,N
1516792815.2,286047001.2,N
1516792835.0,286047000.4,N
1516792835.9,286047000.4,N
1516792855.8,286046998.6,N
1516792875.6,286046998.2,N
1516792895.4,286047000.1,N
1516792915.3,286047002.4,N
1516792935.1,286046999.7,N
1516792955.9,286046999.7,N
1516792975.7,286047000.5,N
1516792995.5,286047000.1,N
1516793015.4,286046998.3,N
1516793035.2,286046996.5,Y
1516793055.0,286047001.2,P
1516793056.0,286047001.2,N
1516793075.8,286046998.5,P
1516793095.6,286046998.7,N
1516793115.5,286046998.2,N
1516793135.3,286046998.2,N
1516793155.1,286046996.8,N
1516793175.9,286046996.8,N
1516793195.7,286047000.8,N
1516793215.5,286046998.7,N
1516793235.4,286046999.1,N
1516793255.2,286046999.5,N
1516793275.1,286046998.4,N
1516793276.0,286046998.4,N
1516793295.8,286046998.5,N
1516793315.7,286046999.0,N
1516793335.5,286046997.0,N
1516793355.3,286046997.1,N
1516793375.2,286046997.0,N
1516793395.0,286046996.6,N
1516793395.9,286046996.6,N
1516793415.7,286046998.7,N
1516793435.6,286046998.8,N
1516793455.4,286047000.8,N
1516793475.3,286047000.4,N
1516793495.1,286046998.8,N
1516793515.8,286046996.6,N
1516793535.7,286046999.3,N
1516793555.5,286047001.2,N
1516793575.4,286046999.2,N
1516793595.2,286046997.0,N
1516793615.1,286046997.1,N
1516793616.0,286046997.1,N
1516793635.8,286046996.9,N
1516793655.7,286046995.0,Y
1516793675.5,286046999.6,P
1516793695.3,286047000.1,N
1516793715.2,286047001.2,N
1516793735.0,286046998.5,N
1516793735.9,286046998.5,N
1516793755.7,286047000.0,N
1516793775.6,286047002.3,N
1516793795.4,286047002.8,N
1516793815.3,286047002.6,N
1516793835.1,286047001.5,N
1516793855.8,286047003.1,N
1516793875.7,286047003.9,N
1516793895.5,286047003.8,N
1516793915.4,286047002.7,N
1516793935.2,286047002.3,N
1516793955.0,286047002.3,N
1516793955.9,286047002.3,N
1516793975.8,286047000.7,N
1516793995.6,286047000.0,N
1516794015.4,286047001.0,N
1516794035.3,286047000.7,N
1516794055.1,286046998.4,N
1516794075.9,286047002.4,N
1516794095.7,286047001.2,N
1516794115.5,286046998.9,N
1516794135.4,286047001.2,N
1516794155.2,286047000.7,N
1516794175.1,286046998.3,N
1516794176.0,286046998.3,N
1516794195.8,286046998.4,N
1516794215.6,286046998.6,N
1516794235.5,286046999.2,N
1516794255.3,286046999.6,N
1516794275.2,286046999.4,N
1516794295.9,286046997.0,N
1516794315.7,286046999.0,N
1516794335.6,286047000.6,N
1516794355.4,286047000.2,N
1516794375.2,286047000.9,N
1516794395.1,286047002.4,N
1516794396.0,286047002.4,N
1516794415.8,286046999.8,N
1516794435.7,286047001.8,N
1516794455.5,286047002.4,N
1516794475.3,286047002.1,N
1516794495.2,286047002.6,N
1516794515.0,286047000.0,N
1516794515.9,286047000.0,N
1516794535.7,286047000.7,N
1516794555.6,286047000.6,N
1516794575.4,286047001.0,N
1516794595.3,286047000.8,N
1516794615.1,286046999.9,N
1516794616.0,286046999.9,N
1516794635.8,286047000.8,N
1516794655.7,286047000.3,N
1516794675.5,286047001.2,N
1516794695.3,286047000.7,N
1516794715.2,286047001.2,N
1516794735.0,286046998.6,N
1516794735.9,286046998.6,N
1516794755.8,286047002.7,N
1516794775.6,286047000.2,N
1516794795.5,286046999.8,N
1516794815.3,286047002.4,N
1516794835.1,286047001.9,N
1516794855.9,286046999.7,N
1516794875.7,286047002.8,N
1516794895.5,286047000.2,N
1516794915.4,286047002.2,N
1516794935.2,286046999.8,N
1516794955.1,286047001.0,N
1516794956.0,286047001.0,N
1516794975.8,286047001.0,N
1516794995.6,286047000.3,N
1516795015.5,286047000.1,N
1516795035.3,286047002.2,N
1516795055.1,286047000.5,N
1516795075.9,286047001.9,N
1516795095.7,286046999.7,N
1516795115.6,286047000.3,N
1516795135.4,286047000.2,N
1516795155.2,286047000.4,N
1516795175.1,286047000.4,N
1516795176.0,286047000.4,N
1516795195.8,286047002.4,N
